Weather History for Monte Scuro, Italy

Change the Weather History Date:

Thursday, January 24, 2013

  Actual Average Record
Temperature  
Mean Temperature 48 °F -  
Max Temperature 71 °F 34 °F 71 °F (2013)
Min Temperature 26 °F 26 °F 14 °F (2000)
Degree Days  
Heating Degree Days 16    
Moisture  
Dew Point 31 °F    
Average Humidity 100    
Maximum Humidity 100    
Minimum Humidity 97    
Precipitation  
Precipitation 1.10 in - - ()
Sea Level Pressure  
Sea Level Pressure 29.32 in    
Wind  
Wind Speed 19 mph ()    
Max Wind Speed 32 mph    
Max Gust Speed -    
Visibility 0.6 miles    
Events Fog , Rain , Snow , Thunderstorm    
Averages and records for this station are not official NWS values.
T = Trace of Precipitation, MM = Missing Value Source: Averaged Metar Reports

Daily Weather History Graph

Daily Weather History Graph

Search for Another Location

Airport:

Trip Planner

Search our weather history database for the weather conditions in past years. The results will help you decide how hot, cold, wet, or windy it might be!

Date:

Astronomy

Jan. 24, 2013 Rise Set
Actual Time 7:07 AM CET 5:05 PM CET
Civil Twilight 6:39 AM CET 5:34 PM CET
Nautical Twilight 6:06 AM CET 6:06 PM CET
Astronomical Twilight 5:34 AM CET 6:38 PM CET
Moon 2:52 PM CET (1/24) 4:52 AM CET (1/24)
Length of Visible Light 10h 55m
Length of Day
9h 57m
Waxing Gibbous, 93% of the Moon is Illuminated
Jan 24
Waxing Gibbous
Jan 27
Full
Feb 3
Last Quarter
Feb 10
New
Feb 17
First Quarter

Hourly Weather History & Observations

Time (CET) Temp. Windchill Dew Point Humidity Pressure Visibility Wind Dir Wind Speed Gust Speed Precip Events Conditions
12:55 AM 32.0 °F 17.2 °F 32.0 °F 100% 29.50 in 6.2 mi SW 32.2 mph - N/A   Partly Cloudy
1:00 AM 32 °F - 32 °F 98%  in 6 mi SW 32.2 mph - -   Partly Cloudy
4:00 AM 30 °F - 29 °F 97%  in 0 mi SW 18.4 mph - - Snow Light Snow
4:55 AM 30.2 °F 17.4 °F 30.2 °F 100% 29.33 in - SW 20.7 mph - N/A Fog Light Freezing Fog
5:55 AM 30.2 °F 18.1 °F 30.2 °F 100% 29.33 in - SW 18.4 mph - N/A Fog Light Freezing Fog
6:55 AM 28.4 °F 15.8 °F 28.4 °F 100% 29.33 in 0.0 mi SW 18.4 mph - N/A Fog , Snow , Thunderstorm Light Thunderstorms and Snow
7:00 AM 28 °F - 28 °F 100%  in 0 mi SW 18.4 mph - - Rain , Thunderstorm Light Freezing Rain
7:55 AM 26.6 °F 13.4 °F 26.6 °F 100% 29.33 in - SW 18.4 mph - N/A Fog Light Freezing Fog
8:55 AM 26.6 °F 14.7 °F 26.6 °F 100% 29.33 in 0.0 mi SW 15.0 mph - N/A Fog , Snow , Thunderstorm Light Thunderstorms and Snow
9:55 AM 28.4 °F 15.8 °F 28.4 °F 100% 29.36 in 0.0 mi SW 18.4 mph - N/A Fog , Snow , Thunderstorm Light Thunderstorms and Snow
10:55 AM 28.4 °F 18.5 °F 28.4 °F 100% 29.36 in 0.0 mi SW 11.5 mph - N/A Fog , Snow , Thunderstorm Light Thunderstorms and Snow
11:55 AM 30.2 °F 20.8 °F 30.2 °F 100% 29.33 in 0.0 mi WSW 11.5 mph - N/A Fog , Snow , Thunderstorm Light Thunderstorms and Snow
12:55 PM 30.2 °F 18.5 °F 30.2 °F 100% 29.30 in 0.0 mi WSW 17.3 mph - N/A Fog , Snow , Thunderstorm Light Thunderstorms and Snow
1:00 PM 30 °F - 30 °F 99%  in 0 mi WSW 17.3 mph - - Rain , Thunderstorm Light Freezing Rain
1:55 PM 30.2 °F 18.5 °F 30.2 °F 100% 29.30 in 0.0 mi WSW 17.3 mph - N/A Fog Light Freezing Fog
2:55 PM 30.2 °F 18.5 °F 30.2 °F 100% 29.24 in 0.0 mi WSW 17.3 mph - N/A Fog Light Freezing Fog
3:07 PM 30.2 °F 18.5 °F 30.2 °F 100% 29.24 in 0.0 mi WSW 17.3 mph - N/A Fog , Snow , Thunderstorm Light Thunderstorms and Snow
3:55 PM 30.2 °F 18.5 °F 30.2 °F 100% 29.24 in 0.0 mi WSW 17.3 mph - N/A Fog , Snow , Thunderstorm Light Thunderstorms and Snow
4:00 PM 30 °F - 30 °F 99%  in 0 mi WSW 17.3 mph - - Rain , Thunderstorm Light Freezing Rain
4:55 PM 30.2 °F 17.1 °F 30.2 °F 100% 29.24 in 0.0 mi WNW 21.9 mph - N/A Fog , Snow , Thunderstorm Light Thunderstorms and Snow
5:55 PM 30.2 °F 16.8 °F 30.2 °F 100% 29.24 in - SSW 23.0 mph - N/A Fog Light Freezing Fog
6:55 PM 30.2 °F 16.5 °F 30.2 °F 100% 29.27 in - SW 24.2 mph - N/A Fog Light Freezing Fog
7:00 PM 30 °F - 30 °F 100%  in 0 mi SW 24.2 mph - - Snow Snow
7:55 PM 30.2 °F 16.8 °F 30.2 °F 100% 29.27 in - SSW 23.0 mph - N/A Fog Light Freezing Fog
8:55 PM 71.6 °F - 71.6 °F 100% 29.30 in - SSW 23.0 mph - N/A Fog Light Freezing Fog
9:55 PM 30.2 °F 17.1 °F 30.2 °F 100% 29.36 in - SW 21.9 mph - N/A Fog Light Freezing Fog
10:00 PM 29 °F - 29 °F 100%  in 0 mi SW 21.9 mph - - Snow Light Snow
10:55 PM 35.6 °F 24.5 °F 35.6 °F 100% 29.39 in - SSW 20.7 mph - N/A Fog Light Freezing Fog
11:55 PM 28.4 °F 13.8 °F 28.4 °F 100% 29.36 in 0.0 mi SW 25.3 mph - N/A Fog Light Freezing Fog